Wind_Speed
14 15 13 11 13 15 14 16 14 14 11 3 4 4 5 9 9 10 7 11 21 17 15 16 14 11 9 6 6 7 5 5 3 3 3 3 3 3 5 7 9 12 12 13 13 14 15 15 13
13 16 15 13 15 15 14 15 10 13 13 9 7 8 7 9 10 8 11 4 27 19 16 14 13 11 9 6 4 4 3 0 1 3 4 4 4 6 7 8 10 11 12 14 13 14 14 14 15
12 16 18 15 16 19 18 16 13 13 15 11 5 6 8 8 11 9 17 10 25 18 15 11 8 6 7 7 6 5 3 3 3 4 6 5 5 7 9 10 12 14 15 15 15 14 15 14 13
14 14 18 17 20 21 18 19 16 16 16 12 7 8 8 5 5 13 12 13 19 17 14 11 7 9 9 8 7 8 8 8 7 7 7 8 8 9 12 13 14 14 16 17 18 18 17 18 18
19 16 17 19 22 24 21 18 17 16 15 14 9 6 5 4 5 7 8 7 21 15 13 13 15 9 10 10 11 11 10 8 7 8 9 10 12 13 13 14 15 15 16 18 19 21 20 20 20
20 20 19 21 23 23 21 20 20 17 16 13 11 8 8 6 6 9 4 9 10 21 21 18 13 10 10 15 14 12 11 10 11 12 15 15 16 16 18 18 17 16 16 17 18 20 21 22 21
17 22 22 24 24 22 23 20 22 23 21 18 15 14 13 11 13 12 13 10 12 14 15 15 11 11 17 18 14 14 15 15 16 17 18 18 17 17 17 19 18 17 17 18 20 21 22 23 24
18 20 26 28 25 24 22 24 22 20 20 20 19 18 17 17 17 20 15 13 19 19 20 17 16 16 17 20 20 20 18 18 18 18 18 18 18 19 20 20 20 20 20 20 22 21 23 24 25
17 20 26 31 29 26 25 24 24 24 22 22 23 20 20 21 22 16 15 14 19 22 22 21 19 19 20 24 26 24 20 20 18 18 19 19 20 21 22 23 23 22 22 22 23 24 25 26 28
16 18 21 32 33 30 28 28 26 26 25 26 26 23 24 20 16 15 17 20 19 22 26 27 26 26 24 22 21 20 22 24 23 22 19 21 24 19 21 22 23 21 25 27 23 23 24 25 28
16 19 21 26 32 33 32 32 30 30 30 29 28 23 20 13 12 18 16 20 23 23 22 21 25 25 21 21 23 23 23 25 24 25 24 22 19 20 23 22 22 24 22 22 21 20 19 22 27
14 18 22 25 25 31 31 32 32 30 28 26 20 17 14 15 16 16 20 22 25 27 25 25 22 24 22 23 22 19 21 24 25 25 23 19 18 21 19 21 19 19 17 16 19 19 20 22 26
13 14 19 21 23 27 28 29 29 28 24 23 19 15 15 18 16 18 17 21 24 27 27 26 26 25 24 24 23 25 24 25 24 24 21 18 17 17 16 15 15 15 15 16 18 18 17 22 23
18 18 18 18 19 22 25 24 21 24 19 18 19 18 20 20 21 19 18 22 24 27 27 25 25 24 25 27 29 28 26 26 25 22 22 18 18 15 14 14 14 14 15 17 19 18 18 21 17
22 23 24 24 25 24 25 26 23 26 23 22 21 23 22 21 21 21 21 23 25 25 25 24 24 24 25 26 25 27 28 26 25 23 22 18 18 17 16 17 17 16 17 19 19 19 18 14 19
23 23 25 29 31 32 32 32 31 31 30 27 26 26 26 24 24 26 25 23 25 28 27 25 25 25 25 26 27 29 29 27 26 24 23 20 20 19 19 20 20 19 19 19 20 18 15 19 19
28 29 28 31 33 33 34 33 34 35 34 34 33 33 30 30 29 28 28 26 28 29 29 29 29 28 29 29 28 29 30 28 27 25 25 22 23 21 21 22 21 21 21 20 21 18 20 20 19
31 31 29 31 35 34 33 33 34 36 35 33 32 32 29 30 33 33 31 31 30 32 32 33 33 31 30 30 28 29 29 29 28 27 27 25 26 24 24 24 22 22 22 21 21 20 23 22 21
33 33 30 29 32 32 32 31 33 33 35 32 32 29 28 28 29 30 28 28 31 31 33 35 36 36 34 32 31 30 30 29 30 30 29 29 29 28 27 27 24 25 24 22 22 21 23 23 21
34 35 32 31 31 33 34 33 31 31 30 31 32 32 30 28 28 30 31 30 30 31 33 35 37 37 36 35 35 32 33 33 32 33 32 32 32 31 31 29 27 27 25 23 23 23 24 23 22
36 36 33 31 32 34 35 35 33 32 31 30 31 33 35 35 31 28 27 29 31 31 33 35 34 34 36 36 37 37 35 36 38 38 37 35 35 34 34 31 30 29 28 25 24 24 24 23 24
37 36 35 34 34 35 35 36 36 35 36 35 34 36 37 37 34 30 29 30 32 31 31 33 33 33 35 35 39 38 38 38 40 41 41 39 37 36 35 33 31 29 29 28 27 25 24 24 25
39 37 37 36 36 36 36 37 38 36 38 37 38 38 36 36 34 36 36 35 36 37 34 33 35 34 35 35 36 38 39 39 41 43 43 43 41 39 38 35 32 30 30 28 27 26 24 25 26
40 38 37 37 37 40 36 35 38 37 36 36 34 34 36 36 36 36 36 36 35 35 35 35 36 37 36 35 36 37 38 36 39 42 44 42 42 42 40 38 35 33 30 29 28 27 26 26 27
37 38 37 38 39 40 37 36 39 39 37 37 36 34 34 36 36 37 37 37 37 36 36 35 35 35 37 37 37 39 42 41 37 39 39 39 39 39 40 39 36 36 33 29 29 29 29 28 28
35 38 39 40 36 35 40 43 43 40 40 39 40 39 37 38 38 37 36 35 35 36 36 35 34 34 34 36 37 41 44 44 43 44 40 33 32 33 37 36 37 37 36 33 31 31 30 30 29
32 34 34 36 38 39 40 43 43 43 44 43 41 42 41 40 38 37 34 36 36 35 33 37 38 36 32 35 39 44 47 46 42 46 43 36 30 32 34 34 36 38 38 37 35 33 32 31 32
36 36 36 34 36 37 39 41 44 43 44 42 41 40 41 41 41 43 41 40 41 43 40 36 39 38 40 45 51 52 52 50 45 40 42 44 40 35 37 37 37 38 39 40 38 37 35 34 35
42 43 36 36 37 40 41 41 42 44 43 44 45 45 45 44 42 43 46 48 47 47 49 48 44 45 41 46 48 49 50 48 47 45 44 44 43 40 37 32 36 39 41 42 41 40 39 37 38
47 43 39 44 45 41 47 46 44 46 47 45 45 46 47 48 48 48 48 48 49 50 51 52 51 50 53 50 49 51 53 54 56 55 55 53 49 48 44 45 50 47 44 45 44 44 43 42 41
Wind_Direction
185 187 193 196 203 201 208 210 218 230 237 210 301 6 4 13 5 1 341 211 193 179 179 169 167 177 164 165 158 138 111 95 71 14 37 25 17 27 19 9 4 4 3 5 7 7 5 7 359
194 192 196 201 213 198 197 212 217 229 249 251 273 345 12 8 8 4 8 201 188 171 175 178 172 179 177 175 194 175 161 261 294 334 342 342 332 339 343 352 352 349 347 347 349 352 353 357 359
204 194 200 203 218 211 206 216 225 242 255 266 301 3 357 24 39 27 48 121 166 168 168 187 186 192 219 214 229 242 224 236 258 282 290 299 309 322 327 333 337 337 336 333 334 337 334 335 338
216 203 201 211 222 220 218 224 230 240 254 265 278 312 313 318 29 58 51 107 175 167 173 183 197 206 211 217 226 245 244 241 250 269 278 309 316 321 321 324 326 326 325 324 324 323 324 322 324
216 217 206 218 240 231 215 228 228 247 257 269 291 289 4 320 346 22 103 122 170 182 188 196 208 215 231 232 234 240 250 256 271 289 292 296 299 300 299 302 307 310 313 313 313 312 311 311 310
219 223 220 225 237 243 229 232 236 238 252 274 280 274 302 344 314 325 312 176 194 202 208 211 228 248 248 241 237 256 269 276 281 282 285 285 287 289 293 295 295 297 301 304 306 306 305 305 305
233 222 229 234 234 242 246 236 241 251 257 267 275 280 293 305 299 303 292 245 209 216 223 223 260 244 254 253 258 269 276 279 280 276 277 280 285 287 288 288 289 291 292 295 298 300 300 300 302
234 234 228 238 239 242 243 251 259 257 260 267 272 277 286 292 289 295 279 252 216 226 226 236 239 245 268 277 285 276 277 279 276 279 278 280 282 284 284 283 286 289 289 291 292 293 294 295 295
234 235 232 237 240 242 245 247 251 258 263 269 273 276 284 286 289 281 234 207 209 225 237 240 242 250 262 270 287 285 279 272 270 275 270 272 280 282 281 284 284 285 287 290 289 290 290 293 294
238 237 235 234 238 240 244 248 254 260 261 265 269 275 282 286 277 239 218 205 209 216 232 240 249 258 254 268 273 274 272 269 266 274 275 269 283 280 286 290 288 284 294 294 286 284 286 292 293
238 236 239 240 239 242 247 252 254 260 265 269 273 278 280 278 264 225 217 206 206 211 221 235 249 244 242 249 254 262 259 263 267 268 274 276 269 280 287 280 294 291 295 293 296 291 290 292 290
249 246 245 245 247 249 251 257 260 263 269 272 275 278 270 273 261 219 210 209 213 222 232 234 241 228 229 242 254 249 259 261 267 268 271 269 274 279 283 275 284 292 299 307 301 296 293 294 287
252 250 252 254 252 252 256 257 264 267 268 272 269 254 243 245 243 239 222 222 225 232 236 239 240 234 234 235 244 250 256 258 259 265 266 277 272 273 273 280 290 302 311 312 302 298 296 296 289
245 248 249 254 251 253 259 261 262 266 261 256 255 247 239 242 246 240 236 235 231 235 237 239 241 246 246 246 246 250 256 259 261 262 267 271 270 275 280 288 293 302 307 306 301 302 295 302 297
255 251 250 245 245 245 251 258 258 258 256 247 246 250 246 243 249 252 242 237 237 239 242 242 246 245 246 249 247 248 253 256 257 261 265 264 269 276 281 286 289 297 301 299 300 299 298 281 300
260 256 255 249 246 250 253 252 252 255 259 259 252 253 260 259 255 255 252 241 234 240 245 247 246 247 251 249 245 243 245 250 255 259 261 261 263 270 279 286 290 295 296 297 300 299 289 301 302
256 255 251 251 250 252 254 256 256 258 258 258 259 260 262 266 267 263 258 251 237 238 241 245 244 243 241 239 239 239 241 245 249 254 259 262 262 265 271 276 280 286 289 290 296 292 295 300 298
263 261 257 257 260 260 258 256 257 259 262 261 255 255 255 256 258 259 259 256 250 242 240 239 241 242 240 238 234 237 239 242 245 248 253 259 261 264 267 270 275 280 282 287 291 293 295 294 295
264 263 262 260 262 263 262 259 260 263 265 265 265 263 260 256 255 256 258 263 263 252 244 240 241 242 242 243 242 240 240 239 246 247 249 253 256 261 265 268 273 276 280 286 288 289 288 290 289
267 266 262 260 260 260 262 259 258 258 256 259 260 262 259 258 262 264 264 257 258 260 255 249 244 245 244 244 247 247 249 248 247 251 251 254 256 257 259 263 267 272 277 279 282 284 285 287 286
265 265 264 260 258 261 262 261 263 260 253 251 255 261 267 269 265 255 254 252 253 254 251 252 250 251 252 252 251 251 251 253 253 251 252 254 256 257 257 260 263 266 270 274 275 276 276 279 278
264 263 262 261 258 258 260 259 262 263 263 259 255 257 263 265 263 252 240 244 249 254 253 251 252 254 254 255 258 258 257 256 255 255 254 256 258 260 261 260 261 262 265 267 271 272 273 273 271
260 259 261 260 259 257 256 257 260 260 262 263 264 263 260 260 259 254 251 248 248 253 252 250 250 250 254 257 258 258 258 258 256 256 256 257 258 260 263 264 263 261 261 261 265 269 271 271 268
259 258 258 261 260 259 257 261 263 262 261 260 258 258 259 261 262 263 263 263 264 260 258 254 246 246 248 253 257 258 255 253 256 259 260 260 261 261 262 262 260 260 259 258 261 265 267 268 266
257 260 259 258 256 261 262 260 257 260 257 256 257 257 258 257 258 259 261 264 265 266 266 262 259 254 249 247 249 254 254 251 251 255 256 256 258 260 261 262 262 262 262 259 258 259 261 262 262
251 253 255 259 259 265 263 261 261 261 262 261 263 262 260 256 256 257 257 257 258 260 263 265 264 258 255 246 245 250 254 254 253 254 254 255 254 254 258 260 262 263 262 259 258 259 260 261 262
250 251 254 256 258 260 261 264 265 265 266 267 265 263 264 259 254 251 253 252 249 248 254 255 258 256 248 240 240 247 251 258 263 261 257 252 257 263 257 256 259 261 261 259 257 258 258 258 258
250 251 248 249 258 260 262 264 266 266 266 266 267 265 263 262 259 256 256 253 251 248 250 251 247 243 234 237 241 241 246 252 258 261 260 257 262 270 271 261 258 259 260 259 255 255 255 254 255
249 246 243 249 254 261 261 267 267 270 273 272 270 269 268 266 263 260 261 263 260 258 257 257 250 240 245 245 247 247 249 255 256 257 258 258 257 260 267 258 257 255 254 255 253 251 252 253 254
250 245 244 259 260 263 261 263 272 274 275 277 276 275 273 272 273 273 269 264 261 260 260 260 257 250 246 250 249 251 255 256 258 259 260 259 257 261 263 260 260 253 246 248 250 252 250 250 252
Height
5905 5907 5909 5910 5913 5913 5915 5917 5918 5918 5920 5923 5923 5925 5926 5924 5922 5923 5921 5919 5921 5924 5928 5929 5932 5935 5936 5937 5936 5936 5938 5938 5938 5939 5938 5938 5939 5939 5939 5938 5937 5936 5935 5935 5935 5934 5934 5932 5931
5904 5906 5908 5909 5910 5912 5914 5916 5917 5918 5919 5922 5924 5925 5925 5923 5922 5921 5918 5914 5917 5923 5927 5930 5931 5933 5936 5936 5937 5937 5937 5938 5939 5939 5939 5938 5938 5938 5938 5937 5936 5935 5935 5934 5934 5934 5933 5931 5930
5903 5905 5907 5907 5907 5909 5912 5915 5917 5918 5919 5921 5924 5924 5924 5923 5922 5920 5918 5915 5919 5924 5927 5931 5933 5934 5935 5936 5937 5937 5936 5937 5937 5937 5938 5938 5937 5937 5938 5937 5936 5935 5934 5933 5932 5932 5932 5931 5929
5901 5903 5906 5905 5904 5907 5912 5913 5915 5917 5918 5921 5923 5924 5924 5923 5922 5920 5919 5919 5920 5924 5928 5930 5931 5932 5933 5934 5936 5936 5935 5935 5935 5936 5936 5936 5936 5935 5936 5936 5935 5934 5932 5931 5930 5929 5930 5929 5928
5899 5901 5902 5903 5902 5905 5910 5911 5912 5914 5918 5921 5923 5923 5922 5922 5921 5921 5922 5922 5923 5924 5926 5927 5929 5930 5932 5933 5933 5933 5933 5933 5934 5935 5935 5934 5934 5932 5932 5932 5932 5932 5930 5929 5928 5927 5926 5926 5925
5896 5898 5901 5900 5901 5903 5907 5910 5910 5913 5915 5919 5921 5921 5921 5922 5921 5920 5921 5923 5923 5924 5924 5925 5928 5929 5930 5930 5931 5931 5932 5931 5932 5931 5932 5931 5931 5930 5929 5928 5928 5927 5927 5926 5925 5924 5923 5922 5921
5893 5896 5897 5896 5899 5902 5904 5907 5909 5911 5913 5916 5918 5919 5919 5920 5919 5920 5919 5919 5921 5923 5923 5925 5926 5927 5928 5928 5929 5929 5929 5928 5928 5927 5928 5928 5927 5927 5926 5926 5925 5925 5924 5922 5922 5921 5920 5918 5917
5891 5893 5893 5893 5896 5899 5901 5904 5906 5908 5910 5913 5914 5916 5916 5916 5916 5916 5916 5916 5917 5920 5921 5923 5924 5925 5925 5926 5926 5926 5926 5925 5924 5924 5924 5924 5923 5923 5922 5921 5921 5920 5921 5919 5919 5918 5916 5914 5914
5888 5890 5890 5889 5892 5895 5898 5900 5902 5905 5909 5910 5910 5912 5913 5912 5911 5911 5912 5913 5914 5917 5919 5920 5921 5922 5923 5923 5924 5923 5922 5922 5921 5921 5920 5920 5920 5919 5919 5918 5917 5915 5916 5915 5915 5914 5913 5911 5910
5885 5886 5886 5885 5887 5891 5893 5896 5900 5902 5905 5906 5908 5909 5909 5909 5908 5908 5908 5909 5910 5913 5914 5915 5917 5917 5919 5920 5920 5919 5918 5917 5917 5916 5916 5917 5917 5915 5915 5914 5913 5911 5911 5910 5910 5910 5909 5907 5905
5882 5882 5882 5881 5883 5886 5889 5892 5896 5898 5900 5901 5904 5906 5906 5906 5906 5905 5905 5906 5907 5908 5910 5911 5912 5913 5914 5914 5915 5913 5914 5913 5913 5913 5913 5913 5912 5912 5911 5911 5909 5908 5907 5906 5905 5905 5905 5904 5901
5880 5879 5879 5879 5881 5882 5885 5886 5890 5893 5895 5896 5899 5901 5902 5902 5903 5903 5903 5903 5904 5905 5906 5908 5908 5908 5908 5910 5910 5909 5909 5909 5909 5909 5909 5909 5908 5908 5907 5907 5906 5906 5904 5902 5901 5900 5901 5900 5898
5876 5877 5877 5877 5878 5878 5880 5882 5885 5887 5890 5891 5893 5895 5896 5897 5898 5899 5900 5900 5900 5900 5901 5902 5903 5904 5904 5905 5906 5905 5905 5905 5905 5906 5905 5905 5904 5904 5904 5904 5903 5902 5900 5899 5898 5897 5896 5895 5893
5872 5873 5874 5874 5874 5874 5874 5877 5880 5881 5884 5886 5887 5889 5890 5891 5892 5894 5895 5895 5896 5896 5896 5896 5897 5898 5900 5900 5900 5900 5900 5900 5901 5900 5901 5901 5900 5900 5900 5900 5900 5898 5896 5896 5895 5892 5892 5890 5889
5868 5869 5869 5869 5868 5869 5870 5871 5873 5874 5877 5880 5882 5882 5884 5886 5887 5888 5890 5890 5890 5891 5890 5891 5892 5893 5894 5894 5894 5895 5895 5896 5896 5896 5897 5898 5897 5896 5896 5896 5896 5894 5893 5892 5891 5889 5887 5887 5885
5862 5863 5863 5862 5862 5863 5865 5866 5866 5867 5870 5872 5875 5876 5877 5880 5881 5882 5883 5884 5884 5884 5884 5885 5886 5888 5888 5889 5890 5890 5891 5891 5891 5892 5893 5893 5893 5892 5891 5891 5891 5890 5889 5889 5887 5885 5884 5882 5880
5854 5855 5856 5855 5854 5857 5859 5860 5860 5860 5862 5864 5866 5868 5871 5872 5873 5874 5875 5876 5877 5878 5879 5879 5880 5881 5882 5883 5884 5885 5886 5886 5886 5887 5888 5888 5888 5888 5887 5886 5886 5885 5885 5885 5883 5881 5880 5878 5877
5847 5848 5850 5850 5850 5850 5852 5853 5852 5851 5854 5857 5858 5860 5863 5865 5865 5866 5868 5869 5870 5871 5872 5873 5874 5876 5877 5877 5878 5879 5880 5880 5881 5882 5882 5882 5882 5882 5882 5882 5881 5880 5881 5880 5878 5877 5876 5875 5874
5841 5841 5844 5845 5843 5844 5844 5846 5845 5846 5846 5849 5849 5852 5855 5857 5858 5859 5860 5862 5864 5865 5866 5866 5866 5867 5868 5869 5870 5872 5873 5874 5874 5874 5875 5875 5876 5876 5876 5876 5876 5876 5876 5875 5873 5873 5872 5871 5870
5833 5833 5837 5837 5837 5837 5836 5837 5839 5839 5841 5841 5843 5844 5847 5849 5851 5852 5853 5855 5856 5856 5858 5860 5860 5860 5861 5861 5862 5864 5865 5866 5867 5867 5868 5869 5869 5870 5870 5870 5870 5870 5869 5869 5869 5868 5867 5866 5865
5825 5826 5828 5830 5829 5829 5831 5830 5833 5833 5835 5837 5837 5837 5837 5839 5842 5845 5845 5846 5847 5849 5849 5850 5852 5853 5853 5854 5855 5856 5858 5859 5859 5860 5861 5862 5862 5863 5864 5864 5863 5863 5863 5862 5863 5863 5861 5861 5862
5815 5817 5819 5821 5822 5823 5824 5825 5824 5826 5827 5828 5831 5831 5831 5831 5833 5835 5838 5838 5840 5841 5842 5843 5844 5845 5845 5846 5846 5847 5849 5850 5851 5851 5852 5853 5853 5854 5855 5856 5856 5856 5856 5856 5857 5857 5857 5858 5857
5805 5807 5809 5812 5813 5814 5815 5817 5815 5818 5819 5820 5820 5820 5821 5822 5824 5826 5829 5831 5832 5832 5834 5836 5836 5838 5837 5838 5839 5840 5840 5841 5842 5843 5844 5845 5844 5845 5846 5847 5848 5849 5850 5850 5850 5851 5851 5852 5852
5795 5799 5801 5802 5803 5803 5806 5809 5807 5809 5811 5811 5812 5811 5811 5812 5813 5815 5817 5819 5821 5822 5823 5824 5826 5828 5828 5829 5831 5832 5832 5833 5833 5833 5833 5835 5836 5837 5838 5838 5839 5840 5841 5842 5843 5844 5845 5846 5847
5788 5789 5792 5794 5794 5795 5797 5798 5797 5798 5799 5801 5802 5803 5803 5803 5804 5805 5806 5808 5810 5811 5812 5813 5815 5816 5817 5819 5821 5823 5823 5823 5824 5824 5825 5826 5827 5827 5827 5828 5829 5830 5832 5834 5836 5837 5838 5839 5840
5780 5781 5783 5782 5785 5788 5785 5784 5785 5788 5789 5791 5792 5792 5793 5794 5795 5795 5797 5798 5799 5801 5802 5802 5804 5806 5808 5809 5812 5813 5814 5814 5813 5813 5814 5817 5818 5818 5818 5819 5819 5821 5823 5824 5827 5829 5830 5832 5832
5771 5772 5774 5774 5774 5774 5774 5773 5774 5777 5779 5780 5780 5780 5782 5783 5784 5785 5786 5788 5788 5790 5792 5793 5794 5796 5798 5800 5801 5803 5803 5804 5803 5803 5805 5806 5808 5808 5809 5809 5811 5812 5814 5816 5818 5820 5821 5823 5825
5761 5763 5764 5765 5764 5763 5762 5763 5762 5765 5766 5767 5767 5769 5770 5772 5773 5774 5776 5776 5777 5779 5780 5782 5783 5785 5786 5789 5790 5791 5791 5792 5793 5794 5796 5797 5798 5798 5798 5799 5801 5803 5804 5806 5808 5809 5812 5814 5815
5751 5751 5753 5755 5755 5754 5755 5754 5755 5754 5755 5756 5756 5757 5757 5759 5761 5763 5763 5764 5765 5765 5766 5768 5771 5774 5775 5775 5776 5778 5780 5780 5781 5783 5784 5786 5787 5788 5789 5789 5790 5791 5793 5794 5797 5799 5801 5803 5805
5738 5740 5743 5744 5745 5744 5744 5744 5745 5745 5745 5745 5744 5744 5744 5744 5745 5747 5748 5749 5750 5750 5751 5752 5754 5757 5760 5761 5762 5763 5764 5765 5767 5769 5771 5772 5775 5775 5778 5778 5778 5777 5779 5781 5784 5787 5790 5792 5793